Location: *
(46.1833°N, 22.7667°E)
Time: 15:37:23
(UTC+00:00)

Terra - Pass Details

Date: 17 September 2019
Orbit: 701 x 703 km, 98.2° (Epoch: 17 October)

Event Time Altitude Azimuth Distance (km) Brightness Sun altitude
Exits shadow 19:23:08 20° 31° (NNE) 1,621 3.7 -27.5°
Drops below altitude 10° 19:25:09 10° 10° (N) 2,182 4.6 -27.8°
Sets 19:27:45 0° 358° (N) 3,104 5.7 -28.1°
